Regional Weather Roundup
Issued by NWS New Orleans/Baton Rouge, LA

Home | Current Version | Previous Version | Text Only | Print | Product List | Glossary Off
Versions: 1 2 3 4 5 6 7 8 9 10 11 12 13 14 15 16 17 18 19 20 21 22 23 24 25 26 27 28 29 30 31 32 33 34 35 36 37 38 39 40 41 42 43 44 45 46 47 48 49 50

252
ASUS44 KLIX 300901
RWRLIX
NEW ORLEANS REGIONAL WEATHER ROUNDUP
NATIONAL WEATHER SERVICE NEW ORLEANS LA
400 AM CDT WED JUL 30 2014

NOTE: "FAIR" INDICATES FEW OR NO CLOUDS BELOW 12,000 FEET WITH NO
      SIGNIFICANT WEATHER AND/OR OBSTRUCTIONS TO VISIBILITY.
      SKY/WX - SKY CONDITION AND SIGNIFICANT WEATHER.
      TMP - AIR TEMPERATURE.     DP    - DEWPOINT TEMPERATURE.
      RH  - RELATIVE HUMIDITY.   PRES  - PRESSURE.
      HI  - HEAT INDEX.          WCI   - WIND CHILL INDEX.

*  THESE STATIONS ARE NOT NWS OR FAA STATIONS AND ARE NOT UNDER
   NWS QUALITY CONTROL.

LAZ038-040-048-061>063-065>067-069-301000-
SOUTHEAST LOUISIANA

CITY           SKY/WX    TMP DP  RH WIND       PRES   REMARKS
N.O. AUDUBON     N/A     78  66  65 MISG        N/A
N.O. INTL ARPT PTCLDY    77  66  68 NE13      30.03S
N.O. LAKEFRONT CLEAR     78  68  71 NE17      30.03S
N.O. DOWNTOWN*   N/A     77  63  61 N3        30.04R
SLIDELL        CLEAR     68  65  90 N3        30.03S
BATON ROUGE    MOCLDY    70  64  81 NE5       30.06R
BOOTHVILLE     PTCLDY    81  71  71 NE8G17    30.01F
BELLE CHASSE   CLEAR     74  65  73 NE6       30.02F
BOGALUSA*        N/A     65  62  87 N3        30.07S
GALLIANO*      NOT AVBL
NEW ROADS*       N/A     70  62  75 NE5       30.07R
GONZALES*        N/A     70  69  95 CALM      30.05S
HAMMOND*       CLEAR     70  61  73 N5        30.07R
HOUMA*         CLEAR     72  66  82 N3        30.03S
PORT FOURCHON* SUNNY     81  72  74 NE8       30.03S

$$

MSZ070-080>082-301000-
SOUTHERN MISSISSIPPI

CITY           SKY/WX    TMP DP  RH WIND       PRES   REMARKS
MCCOMB         CLEAR     67  60  78 CALM      30.07S
GULFPORT       CLEAR     74  63  68 N6        30.02S
BILOXI         CLEAR     72  63  74 NE7       30.03S
PASCAGOULA     CLEAR     68  62  81 N5        30.03S

$$

COASTAL OBSERVATIONS
LAKE AND NEARSHORE STATIONS

STATION/POSITION TIME  TEMP    WIND        PRES    WAVE
                       AIR SEA DIR/SP/G            HT/PER
                 (UTC) (F)     (DEG/KT/KT) (MB)    (FT/S)
PASCAGOULA       0800   74      30/  6/  9 1016.1
WAVELAND YACHT   0800   74      40/ 11/ 14 1016.2
GRAND ISLE       0800   80 86   50/  5/ 12 1017.0
SOUTHWEST PASS   0800   82 84  360/  5/  5 1016.5
NEW CANAL        0800   79 83   50/ 16/ 19 1017.0
SHELL BEACH      0800   79 80   50/ 17/ 19 1016.3

OFFSHORE STATIONS

STATION/POSITION TIME  TEMP    WIND        PRES    WAVE
                       AIR SEA DIR/SP/G            HT/PER
                 (UTC) (F)     (DEG/KT/KT) (MB)    (FT/S)
64 S DAUPHIN ISL 0752   83 85  290/  4/  6 1015.9

$$




USA.gov is the U.S. government's official web portal to all federal, state and local government web resources and services.